Previsão horária em AlMudaina

Hoje, 27 Janeiro, Quarta-feira

Tempo Temperatura Precipitação Vento Pressão Humidade
00:00 +14°C° 0 mm 1 m/s 749 mmHg 98%
01:00 +14°C° 0 mm 1 m/s 749 mmHg 98%
02:00 +14°C° 0 mm 1 m/s 749 mmHg 98%
03:00 +13°C° 0 mm 0 m/s 749 mmHg 98%
04:00 +13°C° 0 mm 0 m/s 748 mmHg 97%
05:00 +13°C° 0 mm 0 m/s 748 mmHg 97%
06:00 +12°C° 0 mm 0 m/s 748 mmHg 97%
07:00 +13°C° 0 mm 0 m/s 748 mmHg 96%
08:00 +14°C° 0 mm 0 m/s 749 mmHg 94%
09:00 +15°C° 0 mm 1 m/s 749 mmHg 93%
10:00 +16°C° 0 mm 1 m/s 749 mmHg 87%
11:00 +18°C° 0 mm 1 m/s 749 mmHg 82%
12:00 +19°C° 0 mm 1 m/s 750 mmHg 77%
13:00 +20°C° 0 mm 1 m/s 749 mmHg 74%
14:00 +20°C° 0 mm 1 m/s 749 mmHg 72%
15:00 +21°C° 0 mm 1 m/s 748 mmHg 70%
16:00 +19°C° 0 mm 1 m/s 748 mmHg 76%
17:00 +18°C° 0 mm 1 m/s 748 mmHg 82%
18:00 +16°C° 0 mm 1 m/s 749 mmHg 89%
19:00 +15°C° 0 mm 1 m/s 749 mmHg 89%
20:00 +15°C° 0 mm 1 m/s 749 mmHg 90%
21:00 +14°C° 0 mm 1 m/s 749 mmHg 91%
22:00 +14°C° 0 mm 1 m/s 749 mmHg 91%
23:00 +14°C° 0 mm 1 m/s 749 mmHg 91%

Amanhã, 28 Janeiro, Quinta-feira

Tempo Temperatura Precipitação Vento Pressão Humidade
00:00 +14°C° 0 mm 1 m/s 749 mmHg 91%
01:00 +13°C° 0 mm 1 m/s 749 mmHg 91%
02:00 +13°C° 0 mm 1 m/s 748 mmHg 91%
03:00 +13°C° 0 mm 1 m/s 748 mmHg 91%
04:00 +13°C° 0 mm 1 m/s 748 mmHg 91%
05:00 +13°C° 0 mm 1 m/s 748 mmHg 90%
06:00 +13°C° 0 mm 1 m/s 748 mmHg 90%
07:00 +13°C° 0 mm 1 m/s 748 mmHg 87%
08:00 +14°C° 0 mm 1 m/s 748 mmHg 84%
09:00 +15°C° 0 mm 1 m/s 748 mmHg 81%
10:00 +18°C° 0 mm 1 m/s 748 mmHg 75%
11:00 +18°C° 0 mm 2 m/s 748 mmHg 69%
12:00 +20°C° 0 mm 2 m/s 748 mmHg 63%
13:00 +22°C° 0 mm 1 m/s 748 mmHg 61%
14:00 +22°C° 0 mm 1 m/s 747 mmHg 59%
15:00 +23°C° 0 mm 1 m/s 747 mmHg 58%
16:00 +21°C° 0 mm 1 m/s 747 mmHg 64%
17:00 +17°C° 0 mm 0 m/s 747 mmHg 71%
18:00 +15°C° 0 mm 0 m/s 747 mmHg 78%
19:00 +15°C° 0 mm 0 m/s 747 mmHg 79%
20:00 +14°C° 0 mm 0 m/s 747 mmHg 80%
21:00 +14°C° 0 mm 0 m/s 747 mmHg 81%
22:00 +14°C° 0 mm 0 m/s 747 mmHg 81%
23:00 +13°C° 0 mm 0 m/s 747 mmHg 82%

Depois de amanhã, 29 Janeiro, Sexta-feira

Tempo Temperatura Precipitação Vento Pressão Humidade
00:00 +13°C° 0 mm 0 m/s 747 mmHg 82%
01:00 +13°C° 0 mm 0 m/s 747 mmHg 83%
02:00 +12°C° 0 mm 0 m/s 747 mmHg 84%
03:00 +12°C° 0 mm 0 m/s 746 mmHg 85%
04:00 +12°C° 0 mm 0 m/s 746 mmHg 85%
05:00 +11°C° 0 mm 0 m/s 746 mmHg 86%
06:00 +11°C° 0 mm 0 m/s 746 mmHg 86%
07:00 +12°C° 0 mm 0 m/s 747 mmHg 84%
08:00 +13°C° 0 mm 0 m/s 747 mmHg 82%
09:00 +14°C° 0 mm 0 m/s 747 mmHg 79%
10:00 +16°C° 0 mm 1 m/s 747 mmHg 74%
11:00 +19°C° 0 mm 1 m/s 747 mmHg 68%
12:00 +21°C° 0 mm 1 m/s 747 mmHg 63%
13:00 +20°C° 0 mm 2 m/s 747 mmHg 62%
14:00 +21°C° 0 mm 2 m/s 746 mmHg 62%
15:00 +21°C° 0 mm 2 m/s 746 mmHg 61%
16:00 +19°C° 0 mm 2 m/s 746 mmHg 69%
17:00 +18°C° 0 mm 2 m/s 746 mmHg 78%
18:00 +16°C° 0 mm 2 m/s 746 mmHg 86%
19:00 +15°C° 0 mm 2 m/s 746 mmHg 88%
20:00 +15°C° 0 mm 2 m/s 746 mmHg 91%
21:00 +14°C° 0 mm 2 m/s 746 mmHg 93%
22:00 +13°C° 0 mm 2 m/s 746 mmHg 94%
23:00 +13°C° 0 mm 2 m/s 746 mmHg 96%

30 Janeiro, Sábado

Tempo Temperatura Precipitação Vento Pressão Humidade
00:00 +12°C° 0 mm 2 m/s 746 mmHg 97%
01:00 +12°C° 0 mm 3 m/s 746 mmHg 96%
02:00 +12°C° 0 mm 3 m/s 745 mmHg 96%
03:00 +13°C° 0 mm 4 m/s 745 mmHg 95%
04:00 +13°C° 0 mm 4 m/s 745 mmHg 93%
05:00 +13°C° 0 mm 4 m/s 744 mmHg 91%
06:00 +13°C° 0 mm 3 m/s 744 mmHg 88%
07:00 +13°C° 0 mm 4 m/s 744 mmHg 88%
08:00 +13°C° 0 mm 4 m/s 744 mmHg 88%
09:00 +13°C° 0 mm 5 m/s 745 mmHg 87%
10:00 +14°C° 0.1 mm 5 m/s 744 mmHg 81%
11:00 +15°C° 0.1 mm 6 m/s 744 mmHg 75%
12:00 +16°C° 0.1 mm 6 m/s 744 mmHg 69%
13:00 +16°C° 0 mm 6 m/s 744 mmHg 63%
14:00 +16°C° 0 mm 6 m/s 743 mmHg 58%
15:00 +16°C° 0 mm 6 m/s 743 mmHg 53%
16:00 +15°C° 0 mm 5 m/s 743 mmHg 59%
17:00 +13°C° 0 mm 4 m/s 743 mmHg 65%
18:00 +12°C° 0 mm 4 m/s 744 mmHg 71%
19:00 +11°C° 0 mm 3 m/s 744 mmHg 73%
20:00 +10°C° 0 mm 3 m/s 744 mmHg 75%
21:00 +10°C° 0 mm 3 m/s 745 mmHg 76%
22:00 +9°C° 0 mm 3 m/s 745 mmHg 79%
23:00 +9°C° 0 mm 3 m/s 745 mmHg 83%

31 Janeiro, Domingo

Tempo Temperatura Precipitação Vento Pressão Humidade
00:00 +8°C° 0 mm 3 m/s 745 mmHg 86%
01:00 +8°C° 0 mm 3 m/s 745 mmHg 85%
02:00 +8°C° 0 mm 3 m/s 745 mmHg 85%
03:00 +8°C° 0 mm 3 m/s 745 mmHg 85%
04:00 +8°C° 0 mm 3 m/s 745 mmHg 85%
05:00 +8°C° 0 mm 3 m/s 745 mmHg 86%
06:00 +8°C° 0 mm 2 m/s 745 mmHg 87%
07:00 +9°C° 0 mm 3 m/s 746 mmHg 87%
08:00 +9°C° 0 mm 3 m/s 746 mmHg 86%
09:00 +9°C° 0 mm 3 m/s 746 mmHg 86%
10:00 +11°C° 0 mm 3 m/s 746 mmHg 82%
11:00 +12°C° 0 mm 3 m/s 747 mmHg 78%
12:00 +13°C° 0 mm 4 m/s 747 mmHg 74%
13:00 +14°C° 0 mm 3 m/s 746 mmHg 72%
14:00 +16°C° 0 mm 3 m/s 746 mmHg 70%
15:00 +16°C° 0 mm 3 m/s 746 mmHg 68%
16:00 +16°C° 0 mm 3 m/s 746 mmHg 73%
17:00 +14°C° 0 mm 3 m/s 746 mmHg 78%
18:00 +13°C° 0 mm 3 m/s 746 mmHg 83%
19:00 +12°C° 0 mm 3 m/s 746 mmHg 86%
20:00 +12°C° 0 mm 3 m/s 746 mmHg 90%
21:00 +11°C° 0 mm 3 m/s 746 mmHg 93%
22:00 +11°C° 0 mm 3 m/s 746 mmHg 94%
23:00 +12°C° 0 mm 2 m/s 746 mmHg 95%

1 Fevereiro, Segunda-feira

Tempo Temperatura Precipitação Vento Pressão Humidade
00:00 +12°C° 0 mm 2 m/s 746 mmHg 96%
01:00 +12°C° 0 mm 2 m/s 746 mmHg 96%
02:00 +12°C° 0 mm 1 m/s 746 mmHg 95%
03:00 +12°C° 0 mm 1 m/s 746 mmHg 95%
04:00 +12°C° 0 mm 1 m/s 746 mmHg 95%
05:00 +11°C° 0 mm 1 m/s 746 mmHg 96%
06:00 +11°C° 0 mm 1 m/s 746 mmHg 97%
07:00 +11°C° 0 mm 1 m/s 747 mmHg 95%
08:00 +12°C° 0 mm 1 m/s 747 mmHg 94%
09:00 +12°C° 0 mm 1 m/s 748 mmHg 92%
10:00 +13°C° 0 mm 1 m/s 748 mmHg 87%
11:00 +14°C° 0 mm 2 m/s 748 mmHg 83%
12:00 +15°C° 0 mm 2 m/s 747 mmHg 78%
13:00 +16°C° 0 mm 2 m/s 747 mmHg 74%
14:00 +17°C° 0 mm 2 m/s 747 mmHg 70%
15:00 +18°C° 0 mm 1 m/s 746 mmHg 66%
16:00 +16°C° 0 mm 1 m/s 747 mmHg 71%
17:00 +15°C° 0 mm 1 m/s 747 mmHg 76%
18:00 +14°C° 0 mm 1 m/s 747 mmHg 82%
19:00 +14°C° 0 mm 1 m/s 747 mmHg 83%
20:00 +12°C° 0 mm 0 m/s 747 mmHg 84%
21:00 +12°C° 0 mm 0 m/s 748 mmHg 85%
22:00 +12°C° 0 mm 0 m/s 748 mmHg 87%
23:00 +11°C° 0 mm 0 m/s 748 mmHg 88%
Mostrar mais

Necessitamos do seu Consentimento

A Meteoprog e os seus Fornecedores de Serviços podem armazenar e aceder a dados pessoais como cookies, identificadores do dispositivo ou outras tecnologias semelhantes existentes no seu dispositivo e processar estes dados para personalizar conteúdos e anúncios, assim como funcionalidades nas redes sociais e análise de tráfego.

  • Armazenar e/ou aceder a informações no seu dispositivo

    Os cookies, identificadores do dispositivo ou outras informações podem ser armazenados ou acedidos no seu dispositivo, para os fins acima indicados.

  • Anúncios e conteúdos personalizados, medição de anúncios e conteúdos, dados sobre o público-alvo e desenvolvimento de produtos

    Os anúncios e os conteúdos podem ser personalizados com base num perfil. Podem ser adicionados dados adicionais para uma maior personalização dos anúncios e dos conteúdos. A eficácia dos anúncios e dos conteúdos pode ser medida. Podem ser obtidas informações sobre o público que visualizou os anúncios e os conteúdos. Estes dados podem ser usados para desenvolver ou melhorar sistemas, softwares ou a experiência do utilizador.

Ao clicar em "Eu concordo”, permitirá o uso de cookies, identificadores do dispositivo e web beacons mencionados ou outras tecnologias semelhantes. As configurações do navegador do seu dispositivo podem ser alteradas.

Para certos fins, podem ser invocados interesses legítimos ao invés de consentimento. Pode ler mais informação sobre este assunto na nossa Política de Privacidade e Cookies.